Tracking 29892 objects as of 21-Nov-2024
HD Live streaming from Space Station
objects crossing your sky now

ONEWEB-0539

Track ONEWEB-0539 now!
10-day predictions
ONEWEB-0539 is classified as:


NORAD ID: 54644
Int'l Code: 2022-166C
Perigee: 1,183.3 km
Apogee: 1,186.5 km
Inclination: 87.9 °
Period: 108.9 minutes
Semi major axis: 7555 km
RCS: Unknown
Launch date: December 8, 2022
Source: United Kingdom (UK)
Launch site: AIR FORCE EASTERN TEST RANGE (AFETR)
Your satellite tracking list
Your tracking list is empty




NASA's NSSDC Master Catalog

Two Line Element Set (TLE):
1 54644U 22166C   24325.51089378  .00000051  00000-0  92204-4 0  9994
2 54644  87.9319 358.2741 0002090  95.7266 264.4106 13.21825858 95750
Source of the keplerian elements: AFSPC